Weather History for GMTA - November, 2012

Change the Weather History Date:

Sunday, November 25, 2012

  Actual Average Record
Temperature  
Mean Temperature 60 °F -  
Max Temperature 67 °F 62 °F 75 °F (2006)
Min Temperature 54 °F 48 °F 42 °F (1999)
Degree Days  
Heating Degree Days 4    
Growing Degree Days 10 (Base 50)    
Moisture  
Dew Point 58 °F    
Average Humidity 84    
Maximum Humidity 94    
Minimum Humidity 75    
Precipitation  
Precipitation 0.00 in - - ()
Sea Level Pressure  
Sea Level Pressure 30.07 in    
Wind  
Wind Speed 3 mph ()    
Max Wind Speed 9 mph    
Max Gust Speed -    
Visibility 5.3 miles    
Events      
Averages and records for this station are not official NWS values.
T = Trace of Precipitation, MM = Missing Value Source: Averaged Metar Reports

Daily Weather History Graph

Daily Weather History Graph

Search for Another Location

Airport or City:

Trip Planner

Search our weather history database for the weather conditions in past years. The results will help you decide how hot, cold, wet, or windy it might be!

Date:

Astronomy

Nov. 25, 2012 Rise Set
Actual Time 7:00 AM WET 5:04 PM WET
Civil Twilight 6:32 AM WET 5:32 PM WET
Nautical Twilight 6:01 AM WET 6:03 PM WET
Astronomical Twilight 5:31 AM WET 6:33 PM WET
Moon 3:09 PM WET (11/25) 4:05 AM WET (11/25)
Length of Visible Light 10h 59m
Length of Day
10h 04m
Waxing Gibbous, 91% of the Moon is Illuminated
Nov 25
Waxing Gibbous
Nov 28
Full
Dec 6
Last Quarter
Dec 13
New
Dec 20
First Quarter

Hourly Weather History & Observations

Time (WET) Temp. Dew Point Humidity Pressure Visibility Wind Dir Wind Speed Gust Speed Precip Events Conditions
12:00 AM 59 °F 56 °F 87% 30.15 in - West 1.2 mph - -  
3:00 AM 60 °F 57 °F 88% 30.12 in - Calm Calm - -  
6:00 AM 56 °F 54 °F 90% 30.08 in 6 mi South 4.6 mph - -   Mostly Cloudy
6:00 AM 55.4 °F 53.6 °F 94% 30.06 in 6.2 mi South 4.6 mph - N/A   Mostly Cloudy
7:00 AM 55.4 °F 53.6 °F 94% 30.06 in 6.2 mi South 2.3 mph - N/A   Mostly Cloudy
8:00 AM 57.2 °F 53.6 °F 88% 30.06 in 6.2 mi SSW 2.3 mph - N/A   Scattered Clouds
9:00 AM 61 °F 59 °F 90% 30.12 in 5 mi SSW 2.3 mph - -   Mostly Cloudy
9:00 AM 60.8 °F 59.0 °F 94% 30.09 in 5.0 mi SSW 2.3 mph - N/A   Scattered Clouds
10:00 AM 66.2 °F 59.0 °F 78% 30.12 in 5.0 mi SSW 2.3 mph - N/A   Scattered Clouds
11:00 AM 64.4 °F 59.0 °F 83% 30.09 in 5.0 mi North 4.6 mph - N/A   Scattered Clouds
12:00 PM 65 °F 59 °F 75% 30.09 in 5 mi NW 4.6 mph - -   Mostly Cloudy
12:00 PM 64.4 °F 59.0 °F 83% 30.09 in 5.0 mi NW 4.6 mph - N/A   Scattered Clouds
1:00 PM 66.2 °F 59.0 °F 78% 30.06 in 5.0 mi North 6.9 mph - N/A   Scattered Clouds
2:00 PM 66.2 °F 59.0 °F 78% 30.06 in 5.0 mi NNW 9.2 mph - N/A   Scattered Clouds
3:00 PM 66 °F 61 °F 78% 30.06 in 5 mi North 4.6 mph - -   Mostly Cloudy
3:00 PM 66.2 °F 59.0 °F 78% 30.04 in 6.2 mi North 4.6 mph - N/A   Scattered Clouds
4:00 PM 66.2 °F 59.0 °F 78% 30.04 in 6.2 mi NE 2.3 mph - N/A   Scattered Clouds
5:00 PM 62.6 °F 57.2 °F 82% 30.04 in 5.0 mi North 2.3 mph - N/A   Scattered Clouds
6:00 PM 63 °F 57 °F 76% 30.05 in 5 mi NNE 2.3 mph - -   Partly Cloudy
6:00 PM 62.6 °F 57.2 °F 82% 30.04 in 5.0 mi NNE 2.3 mph - N/A   Scattered Clouds
7:00 PM 62.6 °F 59.0 °F 88% 30.04 in 5.0 mi WNW 2.3 mph - N/A   Scattered Clouds
8:00 PM 62.6 °F 59.0 °F 88% 30.04 in 5.0 mi North 4.6 mph - N/A   Scattered Clouds
9:00 PM 64 °F 59 °F 78% 30.05 in 5 mi NW 4.6 mph - -   Partly Cloudy
9:00 PM 64.4 °F 59.0 °F 83% 30.04 in 5.0 mi NW 4.6 mph - N/A   Scattered Clouds